Location: Fort Wayne
(41.1310°N, 85.1290°W)
Time: 01:57:24
(UTC-04:00)

Tiros 1 despin weight - Visible Passes

Search period start: 23 July 2014 00:00
Search period end: 02 August 2014 00:00
Orbit: 602 x 652 km, 48.2° (Epoch: 22 July)

Date Brightness Start Highest point End Pass type
(mag) Time Alt. Az. Time Alt. Az. Time Alt. Az.
23 Jul ? 00:05:18 10° WNW 00:09:22 33° N 00:13:25 10° ENE visible
23 Jul ? 01:47:29 10° WNW 01:51:07 43° N 01:51:07 43° N visible
23 Jul ? 22:42:30 10° W 22:46:46 41° NNW 22:51:00 10° ENE visible
24 Jul ? 00:25:09 10° WNW 00:29:15 34° N 00:31:36 20° ENE visible
24 Jul ? 02:07:01 10° WNW 02:08:48 23° NW 02:08:48 23° NW visible
24 Jul ? 23:02:29 10° WNW 23:06:36 34° N 23:10:41 10° ENE visible
25 Jul ? 00:44:49 10° WNW 00:49:04 41° NNE 00:49:30 40° NNE visible
25 Jul ? 02:26:36 10° WNW 02:26:42 11° WNW 02:26:42 11° WNW visible
25 Jul ? 21:39:39 10° W 21:44:02 46° NNW 21:48:22 10° ENE visible
25 Jul ? 23:22:23 10° WNW 23:26:28 33° N 23:30:19 11° ENE visible
26 Jul ? 01:04:23 10° WNW 01:07:31 41° NW 01:07:31 41° NW visible
26 Jul ? 21:59:38 10° WNW 22:03:50 36° N 22:07:59 10° ENE visible
26 Jul ? 23:42:08 10° WNW 23:46:19 37° N 23:48:25 24° ENE visible
27 Jul ? 01:23:55 10° WNW 01:25:37 23° WNW 01:25:37 23° WNW visible
27 Jul ? 22:19:35 10° WNW 22:23:41 33° N 22:27:45 10° ENE visible
28 Jul ? 00:01:43 10° WNW 00:06:06 50° NNE 00:06:34 47° NE visible
28 Jul ? 01:43:36 10° WNW 01:43:47 11° WNW 01:43:47 11° WNW visible
28 Jul ? 22:39:24 10° WNW 22:43:33 35° N 22:47:33 11° ENE visible
29 Jul ? 00:21:16 10° WNW 00:24:46 53° NW 00:24:46 53° NW visible
29 Jul ? 22:59:03 10° WNW 23:03:22 43° NNE 23:05:47 23° ENE visible
30 Jul ? 00:40:51 10° WNW 00:43:00 27° WNW 00:43:00 27° WNW visible
30 Jul ? 21:36:38 10° WNW 21:40:47 33° N 21:44:52 10° ENE visible
30 Jul ? 23:18:36 10° WNW 23:23:05 64° NNE 23:24:04 49° E visible
31 Jul ? 01:00:42 10° WNW 01:01:17 13° W 01:01:17 13° W visible
31 Jul ? 21:56:21 10° WNW 22:00:37 39° NNE 22:04:50 10° E visible
31 Jul ? 23:38:09 10° WNW 23:42:23 73° WSW 23:42:23 73° WSW visible
01 Aug ? 22:15:55 10° WNW 22:20:23 54° NNE 22:23:31 18° E visible
01 Aug ? 23:57:52 10° WNW 00:00:15 27° W 00:00:00 25° W visible
